Vertical_Velocity
1 -1 -1 0 -2 -2 -1 -2 -1 -1 -3 1 -1 -0 -1 0 -3 -4 0 -1 1 0 -3 3 -3 -2 -4 1 1 3 -2 -6 -8 14 1 2 5 5 3 -5 -7 -4 -2 -9 14
-1 1 -3 1 -2 2 -3 -1 -2 -1 -5 -1 1 -0 -2 -0 -4 -3 3 -1 -3 -2 -3 4 -1 -2 -3 -2 -6 1 -2 -5 3 16 -5 3 -8 1 -2 -5 -0 -1 -3 -3 -16
-1 1 -3 -1 -1 0 1 -1 -2 1 -8 -3 1 2 -2 2 -2 0 2 -1 -2 -3 -0 1 -3 -4 -1 2 -3 2 -10 -5 -1 9 -4 -5 1 -4 -1 -5 7 -2 -4 -4 -2
-12 -6 -2 -2 -2 -2 1 0 -0 -2 -3 -4 -0 3 -2 -2 -5 1 -0 1 -0 -0 -6 1 1 -4 -1 -5 -2 -4 1 15 -9 -4 -5 -10 -6 -13 -10 3 -1 -2 2 -4 -2
-1 -9 -0 1 -1 -3 -4 1 1 -2 -1 -4 0 0 -2 2 -5 5 -2 -3 -4 -4 4 -2 -0 -3 -5 -6 -6 2 2 -3 -6 -1 -5 -1 -5 -10 -1 1 -3 -1 2 1 -2
-3 3 -5 -7 8 -2 -2 -4 3 2 -3 -5 -1 -5 -1 -4 10 -6 8 0 2 0 -2 -2 0 -1 -2 -3 -2 0 -2 -5 -3 0 6 3 -10 -1 2 0 2 2 -1 18 -1
-0 -4 4 5 -8 -6 -5 -0 -2 1 4 -1 -4 -0 -7 5 -4 3 6 -1 2 1 -2 -0 0 0 -4 -2 -4 0 -11 -2 6 -3 -6 -0 -3 5 10 11 10 10 1 -2 4
-1 1 -8 10 2 0 -3 -10 -4 -3 3 -0 -1 -6 -2 -4 -1 -7 -1 9 -3 1 1 -2 2 -2 -0 -1 -2 2 -1 -3 -7 -6 5 6 -4 4 8 2 -0 -5 -1 0 -2
0 2 7 -3 -3 -12 -2 6 -1 -8 6 -4 0 1 -3 -6 -1 -1 -6 -1 -0 -4 -0 3 -0 -1 0 -4 -6 5 -4 1 13 21 3 -1 -0 -3 4 4 -2 -2 -2 -1 2
3 2 -1 3 -8 -3 12 -8 5 1 -3 -4 3 2 1 -9 -7 0 0 -6 4 -0 1 -3 1 -4 2 -1 -9 1 0 4 3 7 27 18 12 9 -2 -9 -4 -1 -0 -2 -3
-2 8 7 -2 -3 1 3 16 -1 -5 -17 -5 3 4 -1 0 -6 1 -2 -3 -0 -2 0 -0 -2 -5 1 7 4 -0 1 -3 -2 -10 6 0 -7 -2 -5 -0 3 3 1 0 1
1 3 5 4 -4 2 0 -1 13 1 -13 6 7 -8 5 1 -7 -1 -3 3 -4 -3 5 3 -11 4 -6 0 1 2 -3 -12 -10 15 7 -3 6 -2 4 7 -2 -1 -1 -0 -0
1 3 -1 -2 3 1 -1 -1 7 -0 2 -13 -2 -3 -6 10 -4 1 -3 3 -3 -4 -1 -2 -8 2 -1 -0 3 -0 -7 -3 12 -3 -6 1 25 4 6 1 -2 -1 -2 -2 -5
5 -2 -2 3 -5 0 -2 -3 14 -1 -10 -20 -18 -36 -5 -3 -10 -4 4 -3 -0 -4 -1 -2 -5 14 0 -2 1 2 7 5 -2 -1 -5 4 4 13 4 0 -3 -1 -2 -1 -2
3 -4 -5 13 -11 3 11 10 10 3 4 -5 -1 -4 4 -15 18 -6 13 1 2 0 -3 -4 1 -2 5 -6 3 -7 2 -2 1 -3 9 -5 14 -1 1 0 -2 -1 1 -5 -7
8 1 -4 2 -9 7 4 2 10 9 -10 -3 5 -6 5 -2 1 1 3 0 -1 9 1 -11 9 -1 -6 0 0 -2 -6 -3 6 7 3 -4 12 1 -6 -8 -3 -4 -2 -2 -2
15 -0 -11 -2 -5 13 14 7 4 8 -3 -22 -3 -5 6 -2 6 9 -1 -2 -7 -2 -4 1 -11 5 -6 -4 2 -1 7 -3 -1 5 -8 14 -2 6 -2 -0 0 -3 -3 -4 -7
11 3 1 -3 -3 14 5 16 6 -13 -6 -8 2 13 -11 -5 -2 5 4 -1 0 3 10 -2 2 -0 -5 -8 6 6 14 1 -2 -1 -4 -0 0 7 -2 -2 -1 -3 -2 -5 -1
-1 6 -16 0 6 9 15 10 -32 -4 -9 -13 26 11 1 11 0 7 -2 -5 -6 -4 -4 12 2 9 -1 -2 -2 1 -5 3 -2 -4 2 0 2 1 -0 1 -3 0 -2 -6 -3
-1 4 -17 22 7 22 24 -23 -26 -9 4 25 13 1 -5 -7 9 3 6 -4 -2 8 -4 1 4 8 -2 -1 0 -6 7 1 4 -2 -0 3 -0 -1 -0 -0 -2 -2 -3 -5 -3
3 4 -16 27 26 23 -22 -45 5 -3 1 4 7 16 -3 -9 -0 -3 -1 4 20 6 -2 -4 6 12 3 -9 -2 1 2 -2 4 0 -4 -1 -2 -2 -2 -4 -5 -2 -3 -3 -1
9 -6 -0 8 5 7 -14 -19 13 -12 1 3 5 16 4 9 6 5 -2 2 7 2 -11 -3 -1 3 -24 -1 12 10 7 1 -2 -0 -1 -2 -0 -3 0 -1 2 -1 -2 -2 -3
0 8 8 9 -23 -9 7 -11 2 -11 10 4 -5 -6 -6 -1 20 6 -0 7 5 -4 -4 -4 4 -1 18 13 -1 0 4 -1 -3 -1 -8 -1 -4 0 -2 -1 1 -1 -0 -3 2
37 1 38 34 31 -9 -2 -5 -5 -3 -7 6 -6 14 10 7 7 7 -8 -1 10 -4 -3 2 -1 1 -9 -3 -3 2 -1 0 -5 -1 1 -2 -2 -3 0 0 1 -2 -0 -2 3
28 14 -1 -30 15 10 16 3 2 -10 2 4 6 3 -3 -3 5 -2 -5 5 -0 3 1 -0 -3 3 -3 -2 -1 -0 0 -4 -2 -2 -2 -3 -2 -1 -1 -2 -0 -1 -2 0 2
-2 -23 -0 -3 5 15 4 -4 -6 -2 -8 -9 -4 -9 11 -6 -22 9 -12 -4 -17 -4 1 1 1 -1 -3 13 0 -2 0 -1 -5 -3 -2 -1 -3 0 -1 -2 -3 1 1 -1 1
7 1 17 6 -4 -1 -14 0 -11 8 5 14 -3 -2 3 10 -2 2 2 8 6 2 -2 2 -3 1 -4 7 -0 3 -2 1 -2 1 0 -2 -1 -1 3 -3 -1 1 -1 1 -1
Height
3143 3143 3144 3144 3144 3144 3144 3143 3142 3140 3140 3141 3141 3140 3140 3141 3140 3141 3142 3142 3142 3142 3142 3141 3142 3142 3143 3145 3147 3148 3149 3149 3151 3154 3153 3150 3150 3149 3148 3149 3151 3154 3156 3156 3154
3139 3139 3141 3141 3140 3140 3140 3140 3139 3137 3137 3137 3138 3138 3138 3137 3138 3139 3140 3139 3140 3140 3140 3140 3140 3141 3141 3143 3144 3146 3147 3146 3148 3151 3149 3148 3147 3145 3147 3148 3151 3150 3150 3151 3150
3135 3136 3136 3137 3137 3137 3136 3136 3137 3136 3134 3133 3134 3135 3134 3133 3135 3136 3136 3136 3136 3137 3139 3138 3138 3139 3140 3141 3143 3144 3143 3146 3144 3145 3143 3142 3143 3144 3143 3145 3146 3144 3144 3145 3146
3129 3131 3132 3132 3133 3133 3133 3133 3133 3134 3134 3131 3130 3130 3130 3131 3135 3132 3133 3134 3135 3136 3136 3136 3136 3136 3136 3139 3141 3140 3140 3143 3141 3141 3140 3141 3142 3140 3142 3141 3140 3140 3140 3139 3139
3122 3125 3126 3127 3128 3129 3130 3130 3130 3129 3130 3130 3128 3127 3127 3127 3130 3131 3131 3131 3132 3133 3133 3133 3133 3133 3133 3135 3136 3136 3137 3137 3137 3138 3136 3137 3137 3137 3137 3135 3136 3137 3137 3137 3137
3116 3118 3121 3122 3122 3123 3125 3127 3127 3128 3126 3127 3126 3124 3125 3125 3125 3126 3127 3128 3128 3129 3129 3129 3130 3130 3130 3131 3133 3133 3131 3132 3132 3132 3132 3133 3133 3134 3135 3134 3134 3136 3135 3134 3123
3108 3111 3114 3116 3117 3119 3120 3122 3124 3123 3123 3122 3122 3122 3122 3124 3121 3124 3124 3123 3124 3125 3125 3125 3126 3127 3126 3128 3128 3128 3127 3126 3126 3126 3126 3130 3132 3133 3134 3133 3134 3130 3125 3124 3122
3100 3103 3107 3109 3112 3113 3115 3117 3118 3119 3119 3117 3116 3117 3118 3120 3120 3119 3120 3120 3120 3120 3121 3122 3122 3123 3124 3124 3125 3125 3124 3123 3123 3123 3125 3129 3129 3129 3130 3130 3123 3120 3119 3119 3118
3094 3096 3099 3103 3105 3107 3108 3110 3111 3112 3113 3113 3111 3112 3112 3115 3115 3115 3115 3116 3116 3117 3117 3118 3118 3120 3121 3121 3122 3123 3121 3122 3124 3126 3126 3126 3126 3127 3126 3121 3115 3112 3114 3115 3115
3084 3088 3091 3093 3096 3099 3102 3104 3103 3105 3106 3109 3107 3110 3108 3109 3111 3112 3112 3113 3114 3114 3116 3116 3116 3116 3118 3118 3119 3120 3119 3119 3121 3124 3124 3123 3124 3124 3119 3115 3110 3110 3111 3112 3112
3075 3077 3081 3085 3088 3090 3095 3095 3100 3099 3098 3106 3105 3104 3102 3102 3106 3107 3109 3109 3111 3111 3112 3112 3113 3113 3115 3116 3116 3115 3116 3117 3118 3121 3120 3119 3120 3117 3115 3109 3106 3107 3107 3107 3106
3068 3071 3073 3076 3078 3081 3084 3085 3089 3092 3091 3094 3099 3095 3101 3097 3098 3102 3103 3107 3106 3109 3110 3109 3108 3110 3111 3112 3113 3114 3112 3113 3115 3118 3116 3116 3118 3114 3107 3100 3102 3104 3103 3102 3101
3060 3062 3064 3068 3072 3073 3076 3077 3082 3084 3084 3083 3089 3089 3095 3095 3090 3096 3097 3101 3101 3103 3105 3105 3106 3107 3108 3109 3109 3110 3110 3110 3111 3110 3112 3113 3112 3108 3101 3097 3099 3101 3099 3097 3094
3054 3054 3055 3061 3066 3067 3068 3074 3079 3080 3083 3075 3077 3077 3083 3087 3081 3092 3089 3097 3096 3098 3102 3101 3103 3104 3104 3104 3105 3106 3108 3105 3105 3105 3107 3108 3111 3108 3099 3098 3098 3097 3094 3090 3086
3046 3045 3048 3054 3056 3060 3069 3070 3075 3077 3080 3071 3068 3069 3073 3074 3081 3081 3085 3088 3090 3092 3098 3096 3097 3099 3100 3100 3102 3101 3103 3101 3101 3100 3101 3100 3105 3100 3096 3096 3096 3094 3090 3086 3082
3038 3038 3039 3042 3050 3056 3060 3065 3068 3075 3065 3062 3061 3061 3066 3066 3074 3078 3079 3084 3087 3089 3089 3092 3095 3095 3097 3097 3097 3097 3099 3098 3097 3097 3097 3090 3093 3094 3092 3094 3093 3090 3087 3083 3077
3031 3030 3031 3035 3044 3049 3052 3058 3064 3060 3059 3057 3054 3059 3061 3061 3072 3073 3075 3075 3079 3083 3084 3087 3088 3091 3093 3094 3095 3095 3097 3095 3094 3094 3090 3087 3086 3092 3088 3088 3088 3086 3083 3077 3072
3020 3022 3023 3028 3035 3038 3044 3051 3051 3051 3052 3055 3054 3056 3055 3059 3066 3069 3071 3071 3074 3077 3081 3082 3083 3085 3085 3087 3091 3091 3095 3093 3090 3091 3088 3085 3087 3090 3087 3086 3085 3081 3078 3075 3070
3009 3010 3014 3021 3024 3027 3034 3038 3038 3043 3047 3050 3054 3053 3054 3055 3061 3065 3067 3066 3067 3071 3077 3075 3079 3079 3082 3084 3087 3087 3090 3091 3088 3086 3086 3083 3087 3087 3085 3084 3082 3080 3076 3072 3066
2997 2998 3003 3010 3014 3021 3026 3027 3029 3033 3041 3044 3045 3046 3045 3050 3057 3059 3062 3060 3063 3066 3070 3073 3077 3077 3079 3082 3083 3083 3085 3087 3085 3086 3086 3081 3082 3082 3084 3082 3079 3075 3072 3069 3064
2983 2982 2987 2995 3004 3012 3012 3011 3017 3024 3036 3037 3039 3041 3040 3045 3049 3053 3054 3059 3058 3059 3064 3070 3074 3076 3075 3078 3078 3080 3078 3083 3082 3082 3083 3084 3081 3081 3080 3077 3075 3071 3068 3065 3060
2965 2965 2968 2978 2993 2994 2995 2997 3013 3018 3027 3030 3033 3035 3034 3042 3044 3049 3051 3056 3052 3054 3061 3067 3070 3071 3071 3075 3076 3076 3075 3078 3079 3081 3080 3081 3079 3078 3078 3075 3072 3069 3066 3061 3057
2949 2956 2960 2967 2975 2979 2989 2995 3006 3015 3018 3023 3026 3030 3035 3039 3041 3044 3048 3054 3052 3054 3057 3063 3065 3068 3071 3072 3072 3074 3075 3075 3076 3078 3078 3078 3077 3076 3075 3073 3070 3067 3064 3060 3055
2936 2943 2948 2957 2966 2973 2981 2989 2997 3007 3013 3017 3021 3027 3031 3034 3034 3038 3045 3050 3050 3051 3055 3058 3059 3062 3063 3063 3068 3071 3071 3072 3073 3076 3074 3072 3073 3073 3073 3070 3067 3064 3061 3057 3053
2925 2924 2930 2941 2954 2960 2974 2984 2993 3000 3007 3012 3016 3019 3022 3025 3031 3033 3040 3044 3047 3047 3051 3055 3057 3059 3061 3063 3066 3067 3068 3068 3070 3072 3070 3069 3069 3070 3069 3067 3064 3062 3058 3054 3051
2932 2931 2937 2943 2955 2960 2968 2977 2985 2995 3000 3003 3008 3013 3018 3019 3022 3028 3031 3038 3041 3045 3048 3052 3055 3058 3059 3062 3062 3064 3066 3066 3067 3067 3067 3066 3067 3067 3066 3063 3061 3059 3057 3052 3048
2934 2937 2943 2946 2955 2960 2963 2975 2981 2991 2996 3001 3006 3012 3015 3019 3024 3028 3033 3038 3041 3042 3044 3050 3054 3056 3057 3057 3059 3063 3061 3063 3062 3064 3064 3065 3065 3065 3063 3059 3058 3057 3054 3050 3046